[[{"header":{"parameterUnit":"m.s-1","parameterCategory":1,"la1":30.2991,"la2":30.254,"lo1":-89.0895,"lo2":-89.0444,"dy":0.0017,"dx":0.0017,"nx":28,"ny":28,"refTime":"2025-07-23T09:00:00:Z","depth":0,"parameterNumber":2,"parameterNumberName":"U-component_of_WINDS"},"data":[0,0,0,0,0,0,0,0,0,0,0,0,0,0,0,0,0,0,0,0,0,0,0,0,0,0,0,0,0,0,0,0,0,0,0,0,0,0,0,0,0,0,0,0,0,0,0,0,0,0,0,0,0,0,0,0,0,0,1.8715,1.8715,0,1.8732,1.8732,1.8732,1.8675,1.8674,1.8672,1.867,1.869,1.8692,1.8694,0,0,0,0,0,0,0,0,0,0,0,0,0,1.8639,1.8641,1.8715,1.8715,1.8715,1.8732,1.8732,1.8732,1.8676,1.8674,1.8671,1.867,1.8689,1.8692,1.8695,0,0,0,0,0,0,0,0,0,0,0,0,0,1.8666,1.8641,1.8715,1.8689,1.8687,1.8732,1.8732,1.8732,1.8676,1.8673,1.8671,1.8669,1.8689,1.8692,1.8695,1.8766,0,0,1.8705,1.8706,0,0,0,0,0,0,0,0,1.8664,1.8669,1.8693,1.8691,1.8689,1.8699,1.8712,1.8744,1.8677,1.868,1.867,1.8667,1.8695,1.8698,1.8707,1.8767,1.8768,1.8705,1.8707,1.8708,1.8709,0,0,0,0,0,0,0,1.8663,1.8668,1.8722,1.8693,1.8691,1.8678,1.8679,1.8718,1.8702,1.868,1.8676,1.8678,1.8694,1.8704,1.8707,1.8768,1.8705,1.8708,1.871,1.8711,1.8892,1.8895,0,0,0,0,0,0,1.8664,1.8666,1.8721,1.8722,1.867,1.8682,1.8683,1.8698,1.8701,1.8699,1.868,1.8676,1.8699,1.8703,1.8707,1.8793,1.8708,1.8711,1.8713,1.8889,1.8893,1.8896,0,0,0,0,0,0,1.8662,1.8669,1.872,1.8693,1.8699,1.8686,1.8704,1.87,1.871,1.8702,1.8699,1.8693,1.8698,1.8703,1.8753,1.8793,1.8713,1.8716,1.8886,1.889,1.8894,1.8965,0,0,0,0,0,0,1.866,1.8669,1.8694,1.8694,1.87,1.8764,1.8706,1.8702,1.8715,1.8709,1.8713,1.8712,1.8696,1.8748,1.8756,1.8796,1.8718,1.8882,1.8888,1.8893,1.8959,1.8971,1.8982,0,0,0,0,0,1.8658,1.8713,1.8696,1.8703,1.8732,1.8767,1.877,1.875,1.8718,1.8745,1.8741,1.8711,1.8787,1.8754,1.8762,1.8804,1.8879,1.8886,1.8892,1.8954,1.8969,1.8981,0,0,0,0,0,0,1.8719,1.8713,1.8693,1.875,1.8759,1.8757,1.879,1.8766,1.8785,1.8779,1.8754,1.8756,1.8811,1.8812,1.8775,1.8875,1.8828,1.8837,1.8872,1.8886,1.8897,1.8897,1.8721,0,0,0,0,0,1.8739,1.8766,1.876,1.8811,1.8817,1.8803,1.8817,1.8801,1.881,1.8814,1.8812,1.8823,1.885,1.8868,1.8891,1.8959,1.8961,1.8992,1.9003,1.9013,1.9021,1.906,1.9075,1.8917,1.8917,1.8917,0,0,1.8781,1.8781,1.88,1.8823,1.8828,1.886,1.8806,1.884,1.8864,1.8819,1.8866,1.8867,1.8877,1.8937,1.8963,1.894,1.9065,1.9021,1.9028,1.9032,1.9068,1.9083,1.9097,1.8922,1.8921,1.892,0,0,1.8873,1.8875,1.8919,1.8926,1.8934,1.8925,1.8936,1.8938,1.8936,1.8983,1.8952,1.898,1.9025,1.9035,1.9046,1.9146,1.9121,1.9154,1.9214,1.9253,1.9265,1.9276,1.9315,1.9329,1.9162,1.9162,1.9162,0,1.8925,1.8968,1.8945,1.8982,1.8995,1.8956,1.9002,1.901,1.9027,1.9037,1.901,1.9069,1.9073,1.9136,1.9161,1.917,1.9184,1.9154,1.9265,1.9276,1.9286,1.9323,1.9337,1.9166,1.9166,1.9166,1.9165,0,1.9033,1.9064,1.9099,1.9116,1.9133,1.9174,1.9159,1.9179,1.9163,1.9157,1.9208,1.9212,1.9237,1.9251,1.9234,1.9313,1.9299,1.9269,1.9222,1.9306,1.934,1.9354,1.9173,1.9171,1.917,1.9169,0,0,1.9164,1.9169,1.9182,1.9191,1.9199,1.9224,1.9265,1.9289,1.9309,1.9322,1.9358,1.9398,1.9372,1.9385,1.9369,1.9403,1.9486,1.937,1.937,1.9394,1.9577,1.9602,1.9618,1.9469,1.9472,1.9474,1.9578,0,1.9257,1.9326,1.9308,1.9378,1.9409,1.9373,1.941,1.942,1.9417,1.9444,1.944,1.9471,1.9431,1.9439,1.9471,1.9469,1.9523,1.9461,1.9505,1.9507,1.9506,1.9635,1.966,1.9758,1.959,1.9593,1.9594,0,1.9374,1.9393,1.9467,1.9472,1.9485,1.9517,1.954,1.9565,1.9578,1.9573,1.9589,1.9568,1.9611,1.9563,1.9625,1.9583,1.96,1.9602,1.9606,1.9611,1.9557,1.9646,1.9788,1.9804,1.9614,1.9613,1.9611,0,1.9467,1.951,1.956,1.9568,1.9575,1.96,1.9604,1.9614,1.9631,1.9651,1.9663,1.9688,1.9703,1.9724,1.9712,1.9677,1.9777,1.9727,1.9777,1.9778,1.9801,1.98,1.995,1.9808,1.9808,1.9808,1.9807,0,1.9574,1.9621,1.9602,1.9633,1.9686,1.9665,1.9719,1.9719,1.9728,1.9761,1.9731,1.9763,1.9744,1.9775,1.9765,1.982,1.9826,1.9826,1.9823,1.983,1.983,1.9842,1.9836,1.9811,1.9811,1.981,1.9809,0,1.9686,1.9674,1.9728,1.9731,1.9733,1.9772,1.9775,1.9806,1.9801,1.9843,1.9852,1.9844,1.988,1.9869,1.9907,1.9901,1.9971,1.9958,1.9967,1.9965,2.0017,2.0014,2.0182,2.0204,2.0045,2.0047,2.0048,0,1.9756,1.9792,1.9799,1.9819,1.9825,1.9857,1.9874,1.9856,1.9876,1.9894,1.9924,1.9956,1.9981,2.004,2.0039,2.0069,2.0059,2.0116,2.0063,2.007,2.0063,2.0063,2.0068,2.0127,2.0129,2.013,2.0131,0,1.9883,1.9877,1.9902,1.9928,1.995,1.9969,1.9985,2.0003,1.9987,2.0011,2.0047,2.0066,2.0106,2.014,2.0168,2.0174,2.0152,2.0148,2.0162,2.017,2.0175,2.0176,1.9999,2.0144,2.0143,2.0142,2.0141,2.0141,1.9979,2.001,2.0021,2.0052,2.0062,2.0079,2.0109,2.0108,2.0137,2.0168,2.0155,2.0197,2.0212,2.0247,2.0257,2.0291,2.027,2.0289,2.0295,2.03,2.0309,2.0167,2.0296,2.0296,2.0295,2.0295,2.0295,0,2.0107,2.0113,2.0141,2.0166,2.0191,2.0166,2.0184,2.0207,2.0244,2.0259,2.0285,2.0328,2.0361,2.0364,2.0396,2.0424,2.0414,2.0433,2.0432,2.0435,2.0324,2.031,2.044,2.044,2.044,2.044,2.044,2.044,2.0177,2.023,2.0225,2.0284,2.0289,2.033,2.0343,2.0359,2.0371,2.042,2.0448,2.0449,2.046,2.0494,2.0525,2.0525,2.0539,2.0563,2.056,2.0456,2.0442,2.0428,2.0415,2.0565,2.0566,2.0668,2.0669,2.067]},{"header":{"parameterUnit":"m.s-1","parameterCategory":1,"la1":30.2991,"la2":30.254,"lo1":-89.0895,"lo2":-89.0444,"dy":0.0017,"dx":0.0017,"nx":28,"ny":28,"refTime":"2025-07-23T09:00:00:Z","depth":0,"parameterNumber":3,"parameterNumberName":"V-component_of_WINDS"},"data":[0,0,0,0,0,0,0,0,0,0,0,0,0,0,0,0,0,0,0,0,0,0,0,0,0,0,0,0,0,0,0,0,0,0,0,0,0,0,0,0,0,0,0,0,0,0,0,0,0,0,0,0,0,0,0,0,0,0,-3.3473,-3.3473,0,-3.353,-3.3531,-3.3531,-3.3496,-3.3494,-3.3493,-3.3491,-3.3547,-3.355,-3.3553,0,0,0,0,0,0,0,0,0,0,0,0,0,-3.3329,-3.3332,-3.3473,-3.3473,-3.3474,-3.353,-3.3531,-3.3532,-3.3496,-3.3494,-3.3492,-3.349,-3.3546,-3.355,-3.3553,0,0,0,0,0,0,0,0,0,0,0,0,0,-3.339,-3.3333,-3.3473,-3.3463,-3.3463,-3.353,-3.3531,-3.3532,-3.3497,-3.3494,-3.3492,-3.3489,-3.3545,-3.3549,-3.3554,-3.3632,0,0,-3.3568,-3.357,0,0,0,0,0,0,0,0,-3.3386,-3.3395,-3.3464,-3.3464,-3.3464,-3.3503,-3.3501,-3.3565,-3.3497,-3.3484,-3.3491,-3.3488,-3.3534,-3.354,-3.3556,-3.3635,-3.3637,-3.3568,-3.3571,-3.3573,-3.3574,0,0,0,0,0,0,0,-3.3382,-3.3392,-3.3495,-3.3465,-3.3465,-3.3455,-3.3461,-3.3513,-3.3522,-3.3485,-3.3482,-3.349,-3.3534,-3.3551,-3.3557,-3.3638,-3.3568,-3.3572,-3.3575,-3.3577,-3.3783,-3.3785,0,0,0,0,0,0,-3.3379,-3.3389,-3.3493,-3.3497,-3.3418,-3.346,-3.3466,-3.3493,-3.3522,-3.3524,-3.3492,-3.3488,-3.3545,-3.3552,-3.3559,-3.3652,-3.3573,-3.3577,-3.358,-3.378,-3.3783,-3.3786,0,0,0,0,0,0,-3.3376,-3.3389,-3.3491,-3.3442,-3.3455,-3.3465,-3.3495,-3.3496,-3.3513,-3.3527,-3.3528,-3.3508,-3.3543,-3.3552,-3.3614,-3.3653,-3.3579,-3.3583,-3.3777,-3.3781,-3.3785,-3.3839,0,0,0,0,0,0,-3.3372,-3.3388,-3.3419,-3.3443,-3.3457,-3.3547,-3.3498,-3.3499,-3.3522,-3.3517,-3.3543,-3.3545,-3.3542,-3.3607,-3.3619,-3.3658,-3.3587,-3.3773,-3.3779,-3.3784,-3.3834,-3.3844,-3.3853,0,0,0,0,0,-3.3367,-3.3431,-3.342,-3.3433,-3.3496,-3.3549,-3.3557,-3.3553,-3.3525,-3.3555,-3.3564,-3.3544,-3.3647,-3.3614,-3.3626,-3.3668,-3.3771,-3.3777,-3.3783,-3.3829,-3.3842,-3.3853,0,0,0,0,0,0,-3.341,-3.3434,-3.3423,-3.3496,-3.3521,-3.3543,-3.3581,-3.3567,-3.36,-3.3594,-3.3587,-3.3593,-3.3658,-3.3669,-3.3632,-3.3745,-3.3704,-3.3713,-3.3735,-3.3748,-3.3757,-3.3753,-3.3591,0,0,0,0,0,-3.3428,-3.347,-3.3488,-3.3552,-3.3565,-3.3571,-3.3594,-3.3589,-3.3614,-3.3624,-3.3637,-3.3661,-3.3699,-3.3724,-3.3759,-3.3835,-3.384,-3.3869,-3.3879,-3.3887,-3.3895,-3.3935,-3.3948,-3.3807,-3.3807,-3.3806,0,0,-3.3465,-3.3484,-3.3511,-3.3561,-3.3579,-3.3622,-3.358,-3.3627,-3.3658,-3.363,-3.369,-3.37,-3.3727,-3.3796,-3.3827,-3.3807,-3.3935,-3.3895,-3.3902,-3.3905,-3.3943,-3.3956,-3.3968,-3.3811,-3.381,-3.3809,0,0,-3.3555,-3.3574,-3.3629,-3.3648,-3.3677,-3.3681,-3.3694,-3.3718,-3.3724,-3.3784,-3.3764,-3.38,-3.3866,-3.3885,-3.3904,-3.4001,-3.3983,-3.4012,-3.4064,-3.4103,-3.4114,-3.4124,-3.4158,-3.4171,-3.402,-3.402,-3.402,0,-3.3598,-3.3663,-3.3658,-3.3707,-3.3729,-3.3707,-3.3762,-3.378,-3.3819,-3.3834,-3.3812,-3.3893,-3.3909,-3.3982,-3.4006,-3.4022,-3.4036,-3.4009,-3.4113,-3.4123,-3.4132,-3.4165,-3.4178,-3.4023,-3.4023,-3.4023,-3.4022,0,-3.3714,-3.3759,-3.3799,-3.3838,-3.3864,-3.3916,-3.3918,-3.3946,-3.3938,-3.3944,-3.4004,-3.4023,-3.4062,-3.4078,-3.4071,-3.415,-3.4137,-3.4114,-3.4074,-3.4149,-3.4179,-3.4192,-3.4028,-3.4027,-3.4026,-3.4025,0,0,-3.3832,-3.3868,-3.3883,-3.39,-3.393,-3.3964,-3.4014,-3.4053,-3.4076,-3.4103,-3.4144,-3.42,-3.4179,-3.4199,-3.4194,-3.4229,-3.4304,-3.4201,-3.4202,-3.4219,-3.4391,-3.4408,-3.4423,-3.4292,-3.4295,-3.4297,-3.4389,0,-3.3924,-3.4013,-3.401,-3.4091,-3.4132,-3.4112,-3.4155,-3.4177,-3.4184,-3.4218,-3.4225,-3.4265,-3.4234,-3.4246,-3.428,-3.4288,-3.4338,-3.4281,-3.4329,-3.4331,-3.4324,-3.4439,-3.4457,-3.4543,-3.4401,-3.4403,-3.4404,0,-3.4043,-3.4075,-3.4162,-3.4185,-3.4202,-3.4241,-3.4276,-3.431,-3.4334,-3.4336,-3.436,-3.4349,-3.4398,-3.4357,-3.4424,-3.4385,-3.4405,-3.4411,-3.4415,-3.4419,-3.4372,-3.4446,-3.457,-3.4583,-3.4423,-3.4421,-3.442,0,-3.4121,-3.4185,-3.4245,-3.426,-3.4289,-3.4317,-3.433,-3.4353,-3.4376,-3.4406,-3.4421,-3.4456,-3.4475,-3.4502,-3.45,-3.447,-3.4568,-3.4527,-3.4571,-3.4571,-3.4592,-3.4591,-3.4722,-3.4605,-3.4605,-3.4605,-3.4605,0,-3.4224,-3.4277,-3.4281,-3.4317,-3.4376,-3.4372,-3.443,-3.444,-3.446,-3.4497,-3.4481,-3.4516,-3.4512,-3.4547,-3.4546,-3.4602,-3.461,-3.4613,-3.4612,-3.4614,-3.4614,-3.4627,-3.4621,-3.4608,-3.4608,-3.4607,-3.4606,0,-3.4321,-3.4325,-3.4389,-3.4411,-3.4418,-3.446,-3.4479,-3.4513,-3.4518,-3.4565,-3.4576,-3.4584,-3.4624,-3.4625,-3.4672,-3.4671,-3.4738,-3.4731,-3.4731,-3.4729,-3.4773,-3.4769,-3.4917,-3.4935,-3.4807,-3.4808,-3.4809,0,-3.4386,-3.4427,-3.4453,-3.4478,-3.4493,-3.4532,-3.4556,-3.4553,-3.4578,-3.4609,-3.4639,-3.4678,-3.471,-3.4775,-3.4784,-3.4819,-3.4812,-3.4861,-3.4817,-3.4818,-3.4812,-3.481,-3.4813,-3.487,-3.4871,-3.4872,-3.4873,0,-3.4501,-3.4501,-3.4537,-3.4573,-3.4602,-3.463,-3.4656,-3.4677,-3.4677,-3.4705,-3.4747,-3.4771,-3.4819,-3.4858,-3.4892,-3.4904,-3.4888,-3.4887,-3.4899,-3.4902,-3.49,-3.4901,-3.4754,-3.4884,-3.4883,-3.4882,-3.4881,-3.4881,-3.4584,-3.4619,-3.4644,-3.4683,-3.4703,-3.4727,-3.4761,-3.477,-3.4805,-3.4844,-3.4839,-3.4886,-3.4908,-3.4952,-3.4967,-3.5002,-3.4985,-3.5003,-3.5007,-3.5011,-3.5016,-3.4895,-3.5009,-3.5008,-3.5008,-3.5008,-3.5008,0,-3.4698,-3.4713,-3.475,-3.4787,-3.4818,-3.4802,-3.4829,-3.4856,-3.4897,-3.492,-3.4951,-3.4999,-3.5036,-3.5048,-3.5084,-3.511,-3.5103,-3.5119,-3.5117,-3.512,-3.503,-3.5016,-3.5123,-3.5123,-3.5123,-3.5123,-3.5123,-3.5123,-3.4762,-3.482,-3.4823,-3.489,-3.4904,-3.495,-3.4967,-3.4989,-3.5007,-3.5061,-3.5092,-3.51,-3.5118,-3.5155,-3.5188,-3.5191,-3.5204,-3.5223,-3.5222,-3.5138,-3.5126,-3.5115,-3.5102,-3.5226,-3.5226,-3.531,-3.531,-3.5311]}]]